QPF
0.00 0.00 0.00 0.00 0.00 0.00 0.00 0.00 0.00 0.00 0.00 0.00 0.00 0.00 0.00 0.00 0.00 0.00 0.00 0.00 0.00 0.00 0.00 0.00 0.00 0.00 0.00 0.01 0.00 0.00 0.00 0.00 0.00 0.00 0.01 0.01 0.01 0.02 0.03 0.04 0.03 0.02 0.05
0.00 0.00 0.00 0.00 0.00 0.00 0.00 0.00 0.00 0.00 0.00 0.00 0.00 0.00 0.00 0.00 0.00 0.00 0.00 0.00 0.00 0.00 0.00 0.00 0.00 0.00 0.00 0.00 0.00 0.00 0.00 0.00 0.01 0.01 0.01 0.02 0.02 0.02 0.03 0.03 0.01 0.01 0.02
0.00 0.00 0.00 0.00 0.00 0.00 0.00 0.00 0.00 0.00 0.00 0.00 0.00 0.00 0.00 0.00 0.00 0.00 0.00 0.00 0.00 0.00 0.00 0.00 0.00 0.00 0.00 0.00 0.00 0.00 0.00 0.01 0.01 0.01 0.01 0.01 0.02 0.04 0.02 0.02 0.01 0.01 0.01
0.00 0.00 0.00 0.00 0.00 0.00 0.00 0.00 0.00 0.00 0.00 0.00 0.00 0.00 0.00 0.00 0.00 0.00 0.00 0.00 0.00 0.00 0.00 0.00 0.00 0.00 0.00 0.00 0.00 0.00 0.00 0.00 0.01 0.00 0.00 0.00 0.01 0.03 0.02 0.01 0.01 0.01 0.01
0.00 0.00 0.00 0.00 0.00 0.00 0.00 0.00 0.00 0.00 0.00 0.00 0.00 0.00 0.00 0.00 0.00 0.00 0.00 0.00 0.00 0.01 0.01 0.00 0.00 0.00 0.00 0.00 0.00 0.00 0.00 0.00 0.00 0.00 0.00 0.00 0.01 0.02 0.01 0.00 0.01 0.01 0.00
0.00 0.00 0.00 0.00 0.00 0.00 0.00 0.00 0.00 0.00 0.00 0.00 0.00 0.00 0.00 0.00 0.00 0.00 0.00 0.00 0.00 0.01 0.01 0.01 0.00 0.00 0.00 0.00 0.00 0.00 0.00 0.01 0.01 0.00 0.00 0.00 0.01 0.03 0.01 0.00 0.01 0.00 0.00
0.00 0.00 0.00 0.00 0.00 0.00 0.00 0.00 0.00 0.00 0.00 0.01 0.00 0.00 0.00 0.00 0.00 0.00 0.00 0.00 0.01 0.01 0.02 0.01 0.01 0.00 0.00 0.00 0.00 0.00 0.00 0.01 0.01 0.01 0.00 0.00 0.00 0.02 0.01 0.01 0.01 0.00 0.00
0.00 0.00 0.00 0.01 0.01 0.01 0.01 0.00 0.00 0.01 0.01 0.01 0.01 0.01 0.00 0.00 0.00 0.00 0.00 0.01 0.01 0.02 0.02 0.02 0.01 0.01 0.00 0.00 0.00 0.00 0.00 0.01 0.01 0.00 0.00 0.00 0.00 0.01 0.01 0.01 0.01 0.00 0.00
0.00 0.00 0.00 0.01 0.01 0.01 0.01 0.01 0.01 0.01 0.01 0.01 0.01 0.01 0.01 0.01 0.01 0.01 0.01 0.02 0.02 0.02 0.03 0.02 0.01 0.01 0.01 0.00 0.00 0.00 0.00 0.01 0.01 0.02 0.01 0.01 0.01 0.02 0.02 0.01 0.01 0.00 0.00
0.00 0.00 0.00 0.00 0.01 0.01 0.01 0.01 0.01 0.01 0.02 0.02 0.02 0.01 0.01 0.01 0.01 0.01 0.01 0.01 0.01 0.02 0.02 0.02 0.01 0.01 0.01 0.01 0.00 0.00 0.00 0.01 0.01 0.01 0.01 0.01 0.01 0.02 0.03 0.03 0.01 0.01 0.00
0.01 0.01 0.00 0.00 0.00 0.00 0.01 0.01 0.02 0.02 0.02 0.02 0.02 0.02 0.03 0.02 0.01 0.01 0.01 0.01 0.02 0.02 0.03 0.03 0.03 0.03 0.02 0.02 0.01 0.01 0.01 0.00 0.00 0.00 0.01 0.01 0.01 0.03 0.05 0.05 0.03 0.02 0.01
0.02 0.01 0.00 0.00 0.01 0.01 0.01 0.01 0.01 0.02 0.03 0.02 0.01 0.02 0.02 0.01 0.01 0.01 0.01 0.03 0.06 0.08 0.08 0.08 0.08 0.07 0.04 0.03 0.03 0.03 0.02 0.01 0.00 0.00 0.01 0.01 0.02 0.05 0.09 0.09 0.06 0.04 0.02
0.06 0.04 0.02 0.01 0.02 0.01 0.01 0.02 0.03 0.04 0.04 0.03 0.02 0.02 0.02 0.02 0.01 0.02 0.02 0.04 0.07 0.10 0.11 0.13 0.14 0.11 0.08 0.07 0.04 0.03 0.03 0.02 0.01 0.01 0.01 0.01 0.02 0.05 0.11 0.14 0.10 0.07 0.05
0.10 0.08 0.07 0.05 0.04 0.04 0.06 0.10 0.14 0.11 0.09 0.07 0.06 0.06 0.06 0.06 0.06 0.06 0.06 0.07 0.07 0.09 0.12 0.12 0.12 0.13 0.13 0.10 0.08 0.05 0.03 0.03 0.02 0.02 0.01 0.02 0.02 0.05 0.11 0.17 0.16 0.12 0.09
0.16 0.17 0.15 0.12 0.13 0.12 0.18 0.23 0.28 0.21 0.17 0.18 0.15 0.13 0.12 0.11 0.11 0.12 0.12 0.12 0.12 0.13 0.14 0.16 0.18 0.18 0.16 0.15 0.11 0.08 0.05 0.05 0.04 0.05 0.04 0.04 0.07 0.08 0.13 0.17 0.18 0.14 0.12
0.16 0.18 0.19 0.24 0.27 0.23 0.25 0.26 0.30 0.29 0.24 0.22 0.21 0.19 0.21 0.20 0.20 0.18 0.16 0.15 0.15 0.14 0.14 0.15 0.18 0.18 0.19 0.18 0.15 0.11 0.08 0.08 0.07 0.08 0.07 0.06 0.09 0.11 0.13 0.16 0.18 0.16 0.14
0.14 0.19 0.27 0.33 0.29 0.24 0.27 0.27 0.26 0.25 0.23 0.22 0.24 0.25 0.24 0.23 0.24 0.22 0.18 0.17 0.16 0.14 0.12 0.13 0.14 0.17 0.18 0.18 0.15 0.12 0.08 0.08 0.07 0.07 0.08 0.08 0.07 0.10 0.15 0.18 0.20 0.20 0.17
0.12 0.16 0.25 0.28 0.23 0.23 0.21 0.20 0.19 0.17 0.17 0.18 0.19 0.17 0.16 0.19 0.20 0.19 0.19 0.19 0.14 0.11 0.11 0.10 0.11 0.12 0.12 0.14 0.15 0.15 0.12 0.10 0.08 0.09 0.09 0.09 0.10 0.09 0.12 0.16 0.17 0.20 0.22
0.10 0.13 0.20 0.24 0.22 0.17 0.14 0.13 0.12 0.10 0.10 0.08 0.06 0.06 0.08 0.09 0.10 0.11 0.11 0.11 0.09 0.09 0.09 0.08 0.07 0.07 0.08 0.11 0.12 0.13 0.13 0.12 0.10 0.11 0.11 0.09 0.11 0.11 0.10 0.11 0.17 0.17 0.23
0.08 0.09 0.10 0.11 0.12 0.11 0.09 0.09 0.09 0.10 0.09 0.05 0.03 0.03 0.04 0.04 0.05 0.04 0.04 0.05 0.05 0.05 0.04 0.04 0.04 0.04 0.06 0.09 0.11 0.12 0.09 0.09 0.09 0.08 0.07 0.07 0.08 0.09 0.08 0.08 0.12 0.15 0.20
0.06 0.05 0.05 0.05 0.06 0.06 0.05 0.05 0.04 0.03 0.03 0.02 0.01 0.01 0.01 0.02 0.02 0.02 0.01 0.01 0.01 0.02 0.03 0.04 0.05 0.05 0.07 0.09 0.11 0.10 0.08 0.08 0.08 0.06 0.06 0.07 0.07 0.07 0.08 0.07 0.09 0.12 0.13
0.02 0.02 0.02 0.03 0.02 0.02 0.01 0.01 0.01 0.01 0.01 0.01 0.01 0.01 0.01 0.02 0.02 0.02 0.02 0.02 0.01 0.01 0.01 0.02 0.02 0.04 0.07 0.11 0.13 0.13 0.11 0.09 0.06 0.05 0.05 0.04 0.05 0.07 0.06 0.05 0.06 0.08 0.10
0.00 0.00 0.01 0.01 0.00 0.00 0.00 0.00 0.00 0.00 0.00 0.00 0.00 0.01 0.01 0.01 0.01 0.01 0.01 0.01 0.01 0.00 0.00 0.00 0.01 0.02 0.03 0.06 0.10 0.13 0.12 0.10 0.07 0.06 0.05 0.04 0.04 0.05 0.05 0.05 0.06 0.05 0.06
0.00 0.00 0.00 0.00 0.00 0.00 0.00 0.00 0.00 0.00 0.00 0.00 0.00 0.00 0.00 0.00 0.00 0.00 0.00 0.00 0.00 0.00 0.00 0.00 0.01 0.01 0.01 0.02 0.06 0.10 0.11 0.12 0.11 0.09 0.06 0.05 0.05 0.05 0.05 0.05 0.05 0.04 0.05
0.00 0.00 0.00 0.00 0.00 0.00 0.00 0.01 0.00 0.00 0.00 0.00 0.00 0.00 0.00 0.00 0.00 0.00 0.00 0.00 0.00 0.00 0.00 0.00 0.00 0.00 0.01 0.02 0.04 0.07 0.10 0.11 0.10 0.09 0.08 0.07 0.06 0.05 0.05 0.05 0.04 0.04 0.05
0.00 0.00 0.00 0.00 0.00 0.00 0.00 0.00 0.00 0.00 0.00 0.00 0.00 0.00 0.00 0.00 0.00 0.00 0.00 0.00 0.00 0.00 0.00 0.01 0.01 0.01 0.01 0.01 0.02 0.04 0.06 0.10 0.11 0.10 0.08 0.07 0.06 0.05 0.04 0.04 0.04 0.04 0.04
MSLP
1011.08 1010.87 1010.80 1010.88 1011.09 1011.38 1011.70 1011.99 1012.23 1012.41 1012.54 1012.67 1012.85 1013.08 1013.39 1013.75 1014.14 1014.50 1014.82 1015.05 1015.20 1015.27 1015.31 1015.32 1015.34 1015.38 1015.46 1015.55 1015.67 1015.78 1015.90 1016.01 1016.12 1016.24 1016.38 1016.54 1016.72 1016.92 1017.11 1017.30 1017.47 1017.61 1017.74
1010.76 1010.65 1010.67 1010.83 1011.12 1011.47 1011.84 1012.17 1012.42 1012.62 1012.77 1012.92 1013.11 1013.37 1013.69 1014.06 1014.44 1014.79 1015.07 1015.27 1015.39 1015.45 1015.48 1015.50 1015.54 1015.61 1015.69 1015.80 1015.90 1016.00 1016.09 1016.18 1016.27 1016.39 1016.55 1016.73 1016.94 1017.16 1017.37 1017.57 1017.75 1017.90 1018.04
1010.43 1010.40 1010.51 1010.76 1011.14 1011.57 1012.00 1012.38 1012.67 1012.89 1013.07 1013.24 1013.44 1013.70 1014.02 1014.36 1014.71 1015.01 1015.24 1015.39 1015.48 1015.53 1015.56 1015.60 1015.67 1015.78 1015.90 1016.02 1016.13 1016.22 1016.30 1016.37 1016.46 1016.57 1016.73 1016.93 1017.16 1017.39 1017.62 1017.83 1018.01 1018.17 1018.32
1010.13 1010.18 1010.37 1010.71 1011.17 1011.68 1012.18 1012.62 1012.96 1013.21 1013.40 1013.57 1013.77 1014.02 1014.30 1014.61 1014.90 1015.14 1015.31 1015.41 1015.47 1015.51 1015.55 1015.63 1015.75 1015.90 1016.07 1016.22 1016.35 1016.44 1016.52 1016.58 1016.66 1016.78 1016.94 1017.14 1017.37 1017.61 1017.84 1018.05 1018.23 1018.40 1018.56
1009.93 1010.02 1010.28 1010.70 1011.23 1011.82 1012.38 1012.85 1013.22 1013.49 1013.69 1013.87 1014.05 1014.27 1014.52 1014.77 1015.00 1015.18 1015.30 1015.37 1015.40 1015.44 1015.51 1015.63 1015.80 1016.01 1016.22 1016.40 1016.55 1016.66 1016.73 1016.79 1016.87 1016.99 1017.14 1017.34 1017.57 1017.80 1018.01 1018.21 1018.39 1018.57 1018.74
1009.84 1009.97 1010.27 1010.75 1011.33 1011.96 1012.55 1013.05 1013.43 1013.70 1013.90 1014.06 1014.23 1014.43 1014.64 1014.86 1015.04 1015.18 1015.26 1015.30 1015.33 1015.38 1015.48 1015.64 1015.86 1016.10 1016.35 1016.57 1016.73 1016.85 1016.92 1016.99 1017.06 1017.17 1017.33 1017.52 1017.73 1017.94 1018.14 1018.32 1018.49 1018.66 1018.86
1009.89 1010.03 1010.36 1010.86 1011.48 1012.11 1012.70 1013.19 1013.55 1013.81 1013.98 1014.14 1014.30 1014.48 1014.68 1014.88 1015.05 1015.16 1015.23 1015.27 1015.30 1015.37 1015.49 1015.68 1015.92 1016.19 1016.46 1016.69 1016.86 1016.98 1017.06 1017.12 1017.20 1017.31 1017.46 1017.64 1017.84 1018.03 1018.20 1018.36 1018.52 1018.70 1018.90
1010.06 1010.21 1010.55 1011.06 1011.66 1012.28 1012.83 1013.27 1013.59 1013.81 1013.96 1014.11 1014.26 1014.46 1014.66 1014.87 1015.05 1015.17 1015.24 1015.29 1015.33 1015.41 1015.54 1015.74 1015.99 1016.26 1016.53 1016.75 1016.92 1017.03 1017.11 1017.18 1017.26 1017.38 1017.53 1017.70 1017.89 1018.06 1018.21 1018.35 1018.50 1018.67 1018.89
1010.33 1010.49 1010.84 1011.34 1011.90 1012.47 1012.95 1013.32 1013.58 1013.74 1013.87 1014.00 1014.17 1014.38 1014.62 1014.85 1015.06 1015.21 1015.30 1015.36 1015.41 1015.49 1015.62 1015.80 1016.03 1016.28 1016.52 1016.72 1016.87 1016.97 1017.05 1017.12 1017.22 1017.35 1017.51 1017.69 1017.87 1018.03 1018.17 1018.30 1018.43 1018.60 1018.82
1010.67 1010.86 1011.22 1011.69 1012.21 1012.70 1013.09 1013.38 1013.55 1013.66 1013.75 1013.87 1014.05 1014.29 1014.56 1014.84 1015.08 1015.26 1015.38 1015.45 1015.50 1015.56 1015.67 1015.82 1016.01 1016.22 1016.42 1016.59 1016.71 1016.81 1016.89 1016.97 1017.08 1017.22 1017.40 1017.59 1017.77 1017.93 1018.07 1018.19 1018.32 1018.48 1018.70
1011.07 1011.30 1011.67 1012.12 1012.58 1012.98 1013.28 1013.47 1013.55 1013.60 1013.65 1013.76 1013.94 1014.20 1014.51 1014.82 1015.09 1015.30 1015.43 1015.50 1015.54 1015.59 1015.66 1015.77 1015.91 1016.07 1016.23 1016.36 1016.46 1016.55 1016.63 1016.72 1016.85 1017.01 1017.20 1017.41 1017.60 1017.77 1017.91 1018.03 1018.16 1018.32 1018.54
1011.48 1011.76 1012.15 1012.59 1012.99 1013.31 1013.51 1013.60 1013.61 1013.58 1013.59 1013.68 1013.86 1014.13 1014.45 1014.78 1015.07 1015.28 1015.42 1015.49 1015.51 1015.53 1015.56 1015.63 1015.73 1015.84 1015.96 1016.06 1016.15 1016.23 1016.31 1016.41 1016.55 1016.72 1016.92 1017.14 1017.34 1017.51 1017.66 1017.79 1017.93 1018.09 1018.32
1011.88 1012.23 1012.64 1013.06 1013.41 1013.66 1013.77 1013.78 1013.71 1013.62 1013.58 1013.64 1013.80 1014.06 1014.37 1014.69 1014.98 1015.19 1015.32 1015.38 1015.39 1015.39 1015.39 1015.42 1015.49 1015.57 1015.66 1015.74 1015.82 1015.89 1015.97 1016.07 1016.21 1016.38 1016.57 1016.78 1016.97 1017.15 1017.31 1017.45 1017.60 1017.78 1018.02
1012.26 1012.66 1013.08 1013.48 1013.79 1013.97 1014.02 1013.95 1013.83 1013.69 1013.61 1013.63 1013.76 1013.98 1014.26 1014.56 1014.82 1015.02 1015.14 1015.19 1015.19 1015.18 1015.17 1015.18 1015.23 1015.29 1015.37 1015.45 1015.52 1015.58 1015.65 1015.74 1015.85 1015.99 1016.15 1016.32 1016.50 1016.67 1016.83 1016.99 1017.16 1017.37 1017.62
1012.59 1013.01 1013.43 1013.80 1014.07 1014.20 1014.21 1014.10 1013.93 1013.77 1013.65 1013.63 1013.71 1013.89 1014.13 1014.38 1014.61 1014.79 1014.90 1014.95 1014.95 1014.95 1014.94 1014.96 1015.01 1015.07 1015.14 1015.21 1015.27 1015.32 1015.36 1015.41 1015.47 1015.55 1015.66 1015.78 1015.91 1016.06 1016.22 1016.39 1016.59 1016.84 1017.13
1012.86 1013.27 1013.66 1013.99 1014.21 1014.32 1014.30 1014.18 1014.01 1013.83 1013.69 1013.64 1013.67 1013.79 1013.97 1014.17 1014.37 1014.53 1014.64 1014.70 1014.73 1014.75 1014.76 1014.80 1014.85 1014.92 1014.99 1015.05 1015.09 1015.11 1015.11 1015.10 1015.09 1015.08 1015.10 1015.14 1015.22 1015.32 1015.47 1015.66 1015.90 1016.19 1016.53
1013.07 1013.42 1013.75 1014.03 1014.22 1014.31 1014.29 1014.19 1014.03 1013.87 1013.73 1013.65 1013.64 1013.71 1013.83 1013.99 1014.15 1014.29 1014.41 1014.49 1014.56 1014.61 1014.66 1014.72 1014.79 1014.86 1014.92 1014.96 1014.97 1014.94 1014.88 1014.79 1014.68 1014.58 1014.49 1014.44 1014.43 1014.49 1014.62 1014.83 1015.10 1015.44 1015.84
1013.21 1013.47 1013.73 1013.94 1014.10 1014.18 1014.19 1014.13 1014.03 1013.90 1013.78 1013.69 1013.65 1013.67 1013.74 1013.85 1013.98 1014.11 1014.24 1014.36 1014.46 1014.55 1014.63 1014.71 1014.78 1014.85 1014.89 1014.90 1014.87 1014.79 1014.66 1014.48 1014.27 1014.05 1013.85 1013.70 1013.61 1013.62 1013.72 1013.93 1014.25 1014.64 1015.10
1013.31 1013.46 1013.61 1013.76 1013.89 1013.99 1014.04 1014.05 1014.01 1013.94 1013.86 1013.77 1013.72 1013.69 1013.71 1013.78 1013.88 1014.01 1014.15 1014.29 1014.43 1014.55 1014.65 1014.74 1014.81 1014.86 1014.87 1014.85 1014.77 1014.63 1014.43 1014.17 1013.86 1013.54 1013.23 1012.98 1012.81 1012.75 1012.83 1013.04 1013.38 1013.83 1014.34
1013.37 1013.40 1013.46 1013.54 1013.64 1013.76 1013.87 1013.96 1014.01 1014.02 1013.98 1013.91 1013.84 1013.79 1013.77 1013.79 1013.87 1013.98 1014.13 1014.28 1014.44 1014.57 1014.69 1014.77 1014.83 1014.85 1014.83 1014.77 1014.65 1014.46 1014.20 1013.87 1013.49 1013.08 1012.68 1012.33 1012.08 1011.96 1012.00 1012.20 1012.55 1013.03 1013.58
1013.41 1013.32 1013.29 1013.31 1013.40 1013.55 1013.73 1013.91 1014.05 1014.13 1014.15 1014.11 1014.03 1013.95 1013.89 1013.87 1013.91 1014.00 1014.14 1014.29 1014.45 1014.59 1014.69 1014.77 1014.80 1014.79 1014.74 1014.65 1014.50 1014.28 1013.98 1013.61 1013.18 1012.71 1012.23 1011.81 1011.49 1011.31 1011.29 1011.46 1011.80 1012.27 1012.84
1013.42 1013.24 1013.13 1013.11 1013.20 1013.38 1013.63 1013.89 1014.12 1014.28 1014.35 1014.33 1014.25 1014.14 1014.04 1013.98 1013.97 1014.03 1014.14 1014.28 1014.43 1014.55 1014.64 1014.69 1014.70 1014.67 1014.60 1014.49 1014.33 1014.11 1013.81 1013.43 1012.98 1012.47 1011.95 1011.47 1011.07 1010.82 1010.74 1010.85 1011.14 1011.58 1012.13
1013.40 1013.17 1013.01 1012.96 1013.05 1013.26 1013.56 1013.90 1014.20 1014.43 1014.55 1014.55 1014.47 1014.33 1014.19 1014.08 1014.03 1014.05 1014.12 1014.23 1014.35 1014.45 1014.51 1014.54 1014.53 1014.49 1014.42 1014.32 1014.18 1013.98 1013.71 1013.35 1012.91 1012.39 1011.84 1011.31 1010.86 1010.52 1010.36 1010.38 1010.59 1010.96 1011.45
1013.37 1013.11 1012.92 1012.86 1012.95 1013.19 1013.53 1013.92 1014.28 1014.55 1014.71 1014.73 1014.64 1014.48 1014.31 1014.15 1014.05 1014.02 1014.05 1014.12 1014.20 1014.27 1014.31 1014.32 1014.30 1014.26 1014.20 1014.13 1014.03 1013.89 1013.67 1013.36 1012.96 1012.46 1011.91 1011.34 1010.82 1010.41 1010.15 1010.06 1010.16 1010.43 1010.82
1013.33 1013.08 1012.88 1012.82 1012.91 1013.16 1013.52 1013.94 1014.33 1014.63 1014.81 1014.84 1014.75 1014.57 1014.37 1014.18 1014.03 1013.96 1013.94 1013.97 1014.01 1014.05 1014.06 1014.05 1014.03 1014.00 1013.97 1013.95 1013.91 1013.83 1013.69 1013.45 1013.09 1012.63 1012.09 1011.51 1010.94 1010.45 1010.08 1009.87 1009.85 1009.98 1010.27
1013.33 1013.09 1012.90 1012.84 1012.93 1013.17 1013.53 1013.94 1014.34 1014.65 1014.84 1014.87 1014.78 1014.60 1014.38 1014.16 1013.98 1013.87 1013.81 1013.79 1013.79 1013.79 1013.78 1013.76 1013.74 1013.72 1013.73 1013.75 1013.78 1013.77 1013.71 1013.54 1013.26 1012.85 1012.34 1011.75 1011.16 1010.60 1010.14 1009.82 1009.66 1009.66 1009.82
Thickness
5811 5811 5808 5804 5801 5799 5797 5795 5794 5792 5790 5788 5786 5784 5781 5778 5775 5773 5771 5769 5768 5766 5765 5764 5762 5761 5761 5760 5759 5758 5757 5756 5754 5753 5752 5750 5749 5748 5747 5746 5745 5743 5742
5818 5812 5808 5804 5800 5797 5795 5793 5791 5789 5787 5785 5784 5781 5779 5776 5774 5772 5770 5768 5766 5765 5763 5762 5761 5759 5758 5757 5756 5755 5755 5754 5753 5752 5750 5749 5748 5747 5746 5745 5744 5742 5741
5818 5812 5807 5803 5799 5796 5793 5790 5788 5786 5784 5782 5780 5778 5776 5774 5772 5770 5768 5766 5765 5763 5762 5760 5758 5757 5756 5755 5754 5753 5752 5752 5751 5750 5749 5747 5746 5745 5744 5744 5742 5741 5740
5817 5811 5806 5801 5798 5795 5791 5788 5786 5783 5781 5779 5777 5775 5773 5771 5769 5767 5766 5764 5762 5761 5759 5758 5756 5755 5753 5752 5751 5751 5750 5749 5749 5748 5747 5746 5745 5744 5743 5742 5741 5740 5739
5814 5809 5804 5800 5796 5793 5789 5786 5783 5781 5778 5776 5774 5772 5770 5768 5766 5765 5763 5761 5760 5758 5757 5755 5754 5752 5751 5750 5749 5748 5747 5747 5746 5745 5744 5744 5744 5743 5741 5741 5740 5739 5737
5811 5806 5802 5798 5794 5791 5787 5784 5781 5778 5776 5773 5771 5769 5767 5765 5763 5761 5760 5758 5757 5755 5754 5753 5751 5749 5748 5747 5746 5746 5745 5744 5744 5743 5742 5742 5741 5741 5740 5739 5738 5737 5736
5808 5804 5800 5796 5792 5789 5785 5782 5778 5776 5773 5771 5768 5766 5764 5762 5760 5759 5757 5755 5754 5753 5751 5749 5748 5746 5745 5744 5743 5743 5743 5742 5741 5740 5739 5739 5739 5739 5738 5737 5736 5735 5735
5805 5801 5797 5793 5789 5785 5782 5779 5776 5773 5771 5768 5766 5763 5761 5759 5758 5756 5754 5753 5751 5750 5748 5746 5745 5743 5742 5741 5740 5740 5739 5739 5739 5738 5737 5737 5737 5736 5736 5735 5735 5734 5733
5801 5798 5794 5790 5786 5783 5779 5776 5774 5771 5768 5766 5763 5761 5759 5757 5755 5753 5751 5749 5748 5746 5745 5743 5742 5740 5739 5738 5737 5737 5736 5736 5736 5736 5736 5735 5735 5734 5734 5734 5733 5733 5732
5795 5793 5790 5787 5783 5780 5776 5773 5770 5768 5765 5763 5761 5758 5756 5754 5753 5751 5749 5747 5745 5744 5742 5741 5739 5738 5736 5735 5734 5734 5733 5733 5733 5733 5733 5733 5733 5733 5733 5732 5732 5731 5731
5789 5786 5784 5782 5779 5777 5773 5770 5767 5765 5762 5759 5757 5755 5753 5751 5750 5748 5746 5744 5742 5741 5740 5738 5736 5735 5733 5732 5731 5731 5731 5731 5730 5730 5731 5731 5731 5731 5732 5732 5731 5730 5730
5782 5781 5779 5776 5774 5771 5769 5765 5762 5759 5757 5755 5753 5751 5749 5747 5746 5745 5743 5741 5739 5738 5737 5735 5733 5732 5731 5730 5729 5728 5728 5728 5728 5728 5729 5729 5730 5730 5731 5731 5730 5730 5729
5778 5776 5774 5771 5768 5765 5763 5760 5756 5754 5751 5749 5748 5746 5744 5743 5741 5740 5739 5738 5736 5735 5733 5732 5731 5729 5728 5727 5726 5726 5726 5725 5726 5726 5727 5727 5728 5729 5730 5730 5729 5729 5728
5772 5770 5769 5767 5763 5760 5758 5755 5751 5748 5746 5744 5742 5741 5739 5738 5736 5735 5734 5733 5731 5730 5730 5728 5727 5726 5725 5724 5724 5723 5722 5723 5724 5724 5725 5726 5726 5727 5728 5729 5729 5728 5728
5767 5765 5763 5762 5758 5753 5751 5749 5747 5746 5742 5739 5738 5737 5735 5733 5731 5731 5729 5728 5727 5725 5725 5725 5724 5723 5722 5721 5721 5720 5720 5720 5721 5722 5723 5724 5725 5726 5726 5727 5728 5727 5727
5762 5760 5759 5755 5753 5748 5745 5743 5741 5740 5738 5737 5734 5734 5732 5730 5728 5726 5725 5724 5722 5721 5721 5720 5720 5719 5718 5718 5719 5718 5718 5718 5719 5720 5721 5722 5723 5724 5724 5725 5726 5726 5726
5757 5756 5753 5751 5748 5744 5741 5738 5736 5735 5734 5733 5731 5730 5728 5726 5724 5723 5721 5719 5717 5716 5716 5715 5714 5714 5714 5714 5715 5715 5716 5716 5717 5719 5719 5719 5720 5721 5722 5724 5725 5726 5726
5753 5751 5748 5747 5744 5740 5737 5734 5732 5731 5730 5728 5727 5725 5723 5720 5719 5717 5715 5713 5711 5710 5710 5709 5709 5708 5709 5708 5709 5711 5712 5714 5715 5716 5717 5717 5718 5719 5721 5722 5724 5724 5725
5748 5747 5743 5742 5738 5735 5732 5730 5728 5726 5723 5721 5720 5718 5716 5714 5712 5711 5709 5707 5705 5704 5702 5702 5703 5702 5702 5702 5704 5706 5708 5710 5712 5714 5715 5716 5716 5718 5719 5721 5722 5723 5724
5742 5741 5739 5737 5733 5730 5727 5724 5722 5719 5716 5714 5713 5711 5709 5707 5705 5704 5702 5700 5698 5696 5695 5695 5695 5696 5696 5697 5699 5702 5704 5707 5709 5711 5713 5714 5715 5716 5717 5719 5720 5721 5723
5736 5736 5734 5731 5728 5726 5722 5718 5714 5712 5710 5709 5707 5705 5702 5700 5698 5696 5694 5692 5690 5688 5688 5687 5687 5688 5689 5690 5690 5692 5698 5702 5705 5708 5710 5711 5713 5714 5715 5717 5718 5719 5721
5731 5730 5728 5726 5723 5721 5718 5714 5711 5707 5704 5702 5699 5697 5695 5692 5690 5688 5685 5683 5681 5679 5679 5678 5678 5678 5680 5681 5680 5681 5684 5691 5698 5705 5706 5708 5710 5712 5713 5715 5716 5717 5719
5726 5726 5725 5721 5719 5716 5712 5708 5704 5700 5696 5693 5691 5688 5687 5684 5682 5679 5677 5675 5673 5671 5670 5669 5669 5668 5669 5671 5672 5672 5674 5678 5686 5695 5700 5703 5705 5707 5710 5712 5714 5716 5718
5724 5723 5720 5717 5714 5711 5707 5703 5697 5692 5687 5685 5682 5680 5678 5675 5673 5671 5669 5667 5665 5663 5662 5661 5661 5660 5660 5661 5663 5666 5668 5672 5673 5680 5690 5695 5699 5702 5705 5708 5711 5713 5715
5723 5720 5718 5714 5710 5706 5702 5697 5691 5686 5682 5678 5675 5671 5669 5666 5664 5662 5660 5658 5657 5655 5654 5653 5653 5652 5652 5653 5654 5656 5659 5663 5667 5669 5675 5682 5688 5694 5699 5703 5708 5711 5713
5720 5717 5713 5708 5704 5700 5695 5690 5684 5679 5674 5670 5666 5662 5660 5657 5655 5654 5652 5650 5648 5647 5647 5646 5645 5645 5645 5646 5647 5648 5650 5653 5657 5661 5666 5672 5678 5686 5692 5698 5703 5707 5711